Regional Weather Roundup
Issued by NWS Newport/Morehead, NC

Current Version | Previous Version | Text Only | Print | Product List | Glossary Off
Versions: 1 2 3 4 5 6 7 8 9 10 11 12 13 14 15 16 17 18 19 20 21 22 23 24 25 26 27 28 29 30 31 32 33 34 35 36 37 38 39 40 41 42 43 44 45 46 47 48 49 50
000 ASUS42 KMHX 310813 RWRMHX WEATHER ROUNDUP FOR EASTERN NORTH CAROLINA NATIONAL WEATHER SERVICE NEWPORT/MOREHEAD CITY NC 400 AM EDT FRI JUL 31 2015 NOTE: "FAIR" INDICATES FEW OR NO CLOUDS BELOW 12,000 FEET WITH NO SIGNIFICANT WEATHER AND/OR OBSTRUCTIONS TO VISIBILITY NCZ015>017-031-032-045>047-102-103-310900- NORTH COAST CITY SKY/WX TMP DP RH WIND PRES REMARKS EDENTON N/A 80 74 84 CALM 29.87S ELIZABETH CITY PTCLDY 77 75 93 CALM 29.87F KITTY HAWK MOSUNNY 79 74 85 CALM 29.87S MANTEO PTCLDY 79 75 87 W3 29.88S $$ NCZ045>047-081-094-103-104-310900- CENTRAL COAST CITY SKY/WX TMP DP RH WIND PRES REMARKS FRISCO PTCLDY 80 76 87 S5 29.86F SWANQUARTER N/A 79 N/A N/A N1 29.82S $$ NCZ095-097-098-100-101-310900- SOUTHERN COAST CITY SKY/WX TMP DP RH WIND PRES REMARKS BEAUFORT CLEAR 77 76 96 CALM 29.86S CEDAR ISLAND N/A 79 N/A N/A W2 29.91S JACKSONVILLE CLEAR 75 73 93 CALM 29.86F PINEY ISLAND SUNNY N/A N/A N/A MISG 29.86S WILMINGTON CLEAR 77 75 93 CALM 29.86F $$ NCZ011>013-027>030-043-044-078>080-089-090>093-098-310900- COASTAL PLAIN CITY SKY/WX TMP DP RH WIND PRES REMARKS AHOSKIE PTCLDY 76 74 92 CALM 29.88S CLINTON CLEAR 77 76 94 CALM 29.88S ELIZABETHTOWN PTCLDY 77 76 95 CALM 29.88S GOLDSBORO PTCLDY 78 76 92 W5 29.85F GREENVILLE MOCLDY 77 77 100 CALM 29.90S HAVELOCK PTCLDY 76 74 93 CALM 29.88S KENANSVILLE CLEAR N/A N/A N/A CALM 29.88S KINSTON CLEAR 76 74 96 CALM 29.88S NEW BERN CLEAR 75 72 90 CALM 29.88S RICHLANDS MOCLDY 73 68 83 CALM 29.87S ROCKY MOUNT PTCLDY 78 75 90 W5 29.88S WASHINGTON PTCLDY 76 74 94 CALM 29.88S WHITEVILLE PTCLDY 76 74 92 CALM 29.87S $$ AMZ130-135-150-152-154-156-158-170-250-252-270-ANZ085-086-088-633-658-670-310900- MARINE OBSERVATIONS STATION/POSITION TIME TEMP WIND PRES WAVE SWELL AIR SEA DIR/SP/G HT/PER HT/PER (UTC) (F) (DEG/KT/KT) (MB) (FT/S) (FT/S) CHESAPEAKE LIGHT 0800 77 10/ 15/ 17 1012.5 64 E VA BEACH 0750 81 81 210/ 12/ 14 1011.3 4/ 6 3/ 6 DUCK 0700 80 63 220/ 6/ 9 1011.0 2 E DUCK 0711 70 N/A 2/ 9 OREGON INLET 0700 82 83 180/ 11/ 14 1011.5 13E OREGON INLT 0800 81 N/A 4/ 7 HATTERAS CG 0700 81 83 160/ 3/ 5 1011.3 DIAMOND BUOY 0750 83 85 180/ 8/ 10 1011.4 5/ 7 5/ 7 CAPE LOOKOUT 0800 80 310/ 2/ 3 1010.8 BEAUFORT LAB 0700 80 83 360/ 1/ 3 1010.5 30 SE NEW RVR IN NOT AVBL 27 SE WRIGHTSVLE NOT AVBL 5 SE WRIGHTSVLE 0708 81 83 310/ 6/ 8 1011.3 225 S CAPE HAT 0750 80 81 220/ 21/ 25 1012.9 12/ 9 41 SE CHARLESTON 0750 82 84 260/ 19/ 21 1011.2 3/ 4 2/ 9 $$

USA.gov is the U.S. government's official web portal to all federal, state and local government web resources and services.